Wind_Speed
18 9 7 9 14 10 10 14 22 35 40 43 39 31 43 47 49 38 55 46 56 39 29 30 26 21 24 26 32 39 45 47 42 45 44 55 56 59 53 54 50 44 43 41
14 4 11 6 7 13 10 23 34 30 37 36 33 33 43 42 35 43 42 44 56 63 31 35 37 31 41 32 33 42 40 33 38 45 42 52 48 50 60 57 43 46 47 46
16 3 8 7 19 17 24 33 33 30 33 31 29 45 56 43 37 39 43 40 44 47 35 35 41 46 33 37 44 37 39 41 42 49 32 38 40 39 51 54 46 44 44 40
9 9 10 21 18 28 31 27 29 24 24 20 29 29 50 22 24 49 44 44 42 44 35 30 39 45 33 23 36 34 33 32 26 26 32 31 29 34 45 48 44 44 42 42
22 28 22 25 31 35 31 26 25 20 14 17 26 13 35 27 22 51 43 41 41 40 31 29 20 27 16 19 27 21 23 31 37 23 27 28 26 21 34 50 36 44 44 37
30 32 33 31 32 30 27 25 22 21 20 17 26 13 19 18 33 44 46 45 37 40 31 27 23 19 18 14 14 13 17 30 23 25 20 24 22 22 18 32 40 22 34 30
27 29 34 29 26 20 21 30 23 21 30 24 15 14 18 23 27 32 43 39 37 32 29 30 25 23 27 24 23 23 23 25 28 30 22 22 21 20 22 24 25 22 22 25
22 25 20 22 19 21 22 19 25 29 23 15 11 15 22 18 18 22 31 34 36 34 31 28 27 23 23 25 24 28 31 30 30 32 30 30 28 27 25 27 24 23 24 27
19 20 21 23 24 23 23 18 19 26 24 11 23 20 22 16 16 15 25 29 31 26 22 26 23 23 27 27 29 28 29 31 31 31 31 33 34 35 35 35 32 31 31 31
18 14 20 19 23 29 27 16 17 17 23 11 19 23 19 17 13 10 12 20 22 30 33 31 31 25 23 25 28 31 35 35 35 37 38 38 39 41 41 40 41 40 38 37
20 17 22 26 28 30 25 21 14 10 8 8 14 15 18 16 12 8 6 10 17 24 22 22 22 21 22 24 26 28 32 36 38 38 39 38 39 38 38 39 40 41 40 39
22 23 21 24 24 27 27 25 18 13 13 8 12 10 13 12 10 6 4 2 7 12 16 20 23 24 26 28 29 30 30 30 32 35 37 39 41 39 37 35 37 39 41 40
21 22 24 22 26 27 28 26 22 16 13 6 3 6 8 12 13 12 9 9 12 15 17 21 26 28 28 29 32 34 36 37 36 36 38 40 42 41 41 40 41 41 42 42
19 21 24 25 25 24 25 23 19 17 4 2 2 4 6 9 11 14 17 20 23 25 27 28 28 30 35 37 39 40 41 40 41 42 42 44 44 44 43 44 44 45 47 45
18 18 20 23 25 24 21 17 16 13 8 2 7 10 13 18 23 24 27 30 34 37 40 39 39 41 42 42 43 45 47 48 48 48 48 49 48 49 49 49 48 47 47 47
16 15 15 15 14 14 13 11 9 4 2 10 8 9 13 16 19 22 24 25 29 32 35 41 46 47 48 52 53 53 54 54 55 56 53 53 53 54 53 51 49 49 45 44
23 19 18 18 15 14 14 12 8 7 6 3 2 4 9 12 15 19 21 22 25 33 37 41 45 48 50 53 52 53 56 57 57 58 57 58 58 56 55 53 52 50 48 46
25 23 23 21 23 23 22 20 18 15 12 8 5 7 8 9 11 16 20 23 26 30 33 39 46 48 50 55 60 62 60 58 58 59 60 61 60 58 57 56 54 53 50 50
17 17 17 15 14 17 14 12 10 10 8 7 8 7 9 10 12 19 23 26 32 36 40 46 50 54 57 60 60 59 59 66 67 62 60 59 60 62 61 57 55 56 55 53
10 10 7 8 6 6 5 4 2 2 7 11 11 12 15 21 23 30 29 32 33 38 41 46 54 60 67 70 70 74 73 68 65 67 69 65 61 57 57 58 61 59 57 56
8 7 6 6 5 5 6 7 6 10 10 15 18 21 23 26 29 32 35 38 42 45 49 52 57 63 70 72 77 80 81 79 75 68 66 65 63 64 56 55 51 52 53 53
7 8 8 7 7 8 11 12 12 14 18 19 21 23 26 28 31 37 38 39 40 42 47 54 61 65 69 76 83 85 87 89 87 75 62 59 62 57 64 53 55 51 51 50
8 10 10 11 11 11 12 13 15 18 20 22 23 25 27 29 31 33 33 34 35 38 44 54 60 63 67 79 68 53 51 54 58 68 60 58 57 54 51 57 49 50 46 46
11 13 13 13 14 14 15 16 17 18 21 23 26 27 30 33 34 34 35 34 34 36 45 52 59 59 69 55 49 44 51 47 41 44 50 56 51 46 48 47 46 49 44 45
15 16 16 16 16 16 17 18 19 22 24 26 30 32 33 36 39 39 39 36 34 38 47 53 58 55 53 41 51 49 39 39 38 42 42 47 45 39 42 40 43 45 42 43
17 18 18 18 20 20 20 21 22 25 28 30 33 36 38 40 43 42 40 38 34 39 46 53 53 56 46 40 46 42 25 27 30 40 33 39 37 32 35 38 36 41 41 40
Wind_Direction
328 319 329 275 270 222 183 181 174 185 192 197 208 213 205 213 217 194 197 192 214 209 194 200 187 192 209 224 218 208 210 212 217 218 228 225 229 231 220 224 227 227 224 227
342 296 16 37 208 196 184 156 152 171 186 193 203 205 196 211 210 209 193 192 209 215 193 205 206 195 209 217 210 217 215 216 226 232 244 224 235 237 228 227 228 229 233 240
6 41 23 111 169 139 145 146 158 163 172 185 200 189 195 190 197 191 192 197 206 217 205 216 206 204 178 204 211 209 205 211 221 232 222 222 228 238 240 239 229 233 235 234
36 65 141 149 107 122 126 142 146 165 165 185 199 204 194 182 168 193 193 197 206 212 213 216 218 184 187 189 199 193 212 203 203 208 219 218 218 234 234 234 234 244 240 239
90 91 115 90 107 120 116 138 136 158 156 174 183 150 210 217 240 191 197 196 204 203 201 204 205 216 213 225 219 196 194 199 198 213 214 214 218 224 229 233 234 233 242 244
94 91 97 101 111 120 127 114 129 142 134 149 179 173 147 191 188 187 202 204 211 215 225 227 231 232 222 219 238 214 210 220 217 220 230 216 224 223 231 223 220 242 231 239
85 82 90 94 108 113 117 119 135 151 137 138 114 46 117 169 181 184 192 209 218 220 233 243 254 264 264 256 259 266 272 271 278 280 282 280 277 259 253 246 254 270 264 253
81 92 106 103 112 99 100 124 134 150 143 140 72 67 106 143 178 173 204 206 216 221 227 239 247 247 255 249 247 251 254 255 257 259 256 259 258 257 261 261 267 262 269 271
90 87 104 106 105 99 96 103 130 155 158 98 70 84 106 117 115 166 183 180 201 213 216 235 230 239 251 254 258 250 245 246 247 250 254 255 254 259 256 257 257 250 254 260
90 112 103 103 112 117 105 106 126 153 167 78 79 78 102 110 112 127 188 209 213 219 222 231 241 254 252 253 251 248 248 247 249 255 257 256 257 260 257 254 253 251 254 255
98 90 108 102 112 121 116 111 106 118 125 85 60 67 80 93 103 97 146 191 215 227 232 231 241 253 263 262 261 256 253 252 253 250 251 255 257 257 254 251 248 249 250 250
98 100 106 116 116 122 124 118 114 122 133 108 69 62 46 44 36 38 21 318 265 261 260 262 263 258 257 260 262 263 263 260 256 255 253 253 253 256 257 252 250 249 251 252
104 110 105 108 111 122 120 117 113 107 113 119 43 347 360 352 347 339 326 301 281 274 274 277 281 280 276 272 267 263 259 258 258 258 257 256 255 254 253 253 251 252 254 256
107 110 114 115 114 118 119 114 112 107 88 112 344 344 346 328 318 311 309 304 302 296 291 287 280 276 273 273 270 268 266 262 261 259 256 256 254 254 253 253 254 255 257 258
97 108 108 112 116 117 116 115 119 118 126 246 284 287 288 286 288 286 286 286 290 289 288 283 277 275 270 266 267 269 269 267 265 260 256 255 255 256 257 257 257 258 258 260
93 95 94 89 88 94 107 111 107 109 299 287 285 275 260 265 268 269 273 277 283 281 278 280 282 277 273 273 271 266 263 263 262 262 261 259 257 258 258 257 256 256 257 258
87 88 87 89 82 84 91 92 86 86 92 105 213 283 306 310 305 303 299 295 290 283 279 278 275 272 271 272 269 265 264 264 263 262 261 260 258 257 256 254 254 254 253 251
93 97 99 101 104 105 109 114 117 118 124 136 176 219 247 267 279 276 271 267 269 270 273 275 277 280 279 275 271 268 267 264 261 260 258 258 258 258 256 254 253 251 249 250
87 90 96 100 102 102 112 134 139 143 156 169 196 221 239 248 259 254 259 263 264 269 273 275 277 280 282 282 281 278 272 270 267 263 259 257 256 255 255 255 253 250 251 251
62 61 69 66 69 72 51 55 26 312 272 291 307 272 267 260 261 271 273 274 273 269 269 271 271 270 272 277 278 280 281 278 274 270 267 262 255 252 252 253 253 253 253 252
26 20 10 4 343 320 318 322 306 279 285 286 283 278 274 274 276 270 269 269 273 276 274 275 274 271 270 271 273 275 274 276 278 274 268 262 259 256 248 244 245 248 249 252
352 346 337 331 325 316 309 304 296 288 294 293 289 286 285 282 280 276 276 277 281 282 280 279 278 279 279 279 278 275 272 269 267 265 261 253 255 253 254 250 241 242 246 246
353 344 333 333 322 310 303 306 305 299 298 296 296 298 300 300 295 293 292 292 293 292 287 284 284 285 290 289 295 286 273 272 267 259 248 242 247 251 249 253 249 241 246 248
348 347 343 337 331 324 317 317 311 308 308 308 307 309 312 310 309 309 305 303 306 297 291 291 292 298 300 301 303 296 277 268 272 247 234 237 242 244 245 248 253 238 239 242
342 341 338 332 330 324 324 319 317 317 316 317 315 315 316 317 318 316 312 313 309 300 296 297 303 303 306 299 308 304 290 263 258 242 218 231 237 242 239 239 246 237 233 236
339 340 338 330 328 324 322 320 321 322 320 319 318 318 319 321 318 318 318 322 315 303 299 301 308 308 308 305 311 314 289 265 255 225 203 225 229 235 232 231 237 237 231 232
Height
5574 5570 5565 5562 5561 5561 5561 5563 5570 5584 5598 5611 5621 5630 5636 5646 5654 5665 5678 5689 5698 5708 5717 5724 5729 5734 5742 5745 5753 5759 5759 5761 5765 5770 5777 5781 5787 5790 5792 5793 5797 5802 5807 5810
5572 5567 5564 5561 5559 5560 5563 5568 5577 5591 5602 5614 5622 5629 5639 5647 5656 5663 5674 5686 5694 5703 5710 5717 5723 5730 5735 5742 5747 5751 5755 5758 5762 5766 5771 5775 5779 5783 5783 5785 5790 5798 5802 5804
5571 5569 5566 5562 5561 5562 5567 5574 5585 5597 5606 5616 5622 5629 5637 5646 5649 5661 5670 5680 5692 5699 5706 5713 5716 5722 5727 5734 5741 5745 5748 5753 5758 5760 5763 5768 5771 5775 5779 5780 5783 5790 5795 5797
5573 5571 5568 5567 5568 5570 5576 5585 5593 5605 5613 5620 5623 5633 5639 5643 5647 5660 5669 5679 5689 5696 5704 5708 5714 5717 5726 5731 5738 5742 5744 5749 5754 5759 5760 5764 5766 5768 5771 5773 5778 5783 5788 5790
5580 5576 5576 5576 5576 5580 5588 5595 5603 5611 5616 5621 5628 5637 5641 5645 5649 5659 5667 5678 5687 5694 5698 5705 5708 5713 5717 5724 5729 5731 5738 5747 5746 5752 5756 5759 5761 5764 5765 5768 5773 5778 5780 5781
5585 5582 5583 5585 5587 5591 5595 5603 5608 5614 5619 5628 5632 5642 5640 5643 5646 5658 5668 5676 5683 5689 5695 5698 5701 5707 5713 5714 5720 5727 5732 5741 5740 5745 5748 5752 5755 5758 5759 5762 5768 5768 5770 5773
5593 5592 5593 5596 5599 5601 5601 5610 5615 5619 5625 5635 5639 5639 5639 5643 5650 5659 5667 5675 5682 5690 5693 5698 5703 5707 5711 5716 5719 5721 5725 5729 5732 5737 5741 5745 5747 5749 5751 5755 5756 5759 5761 5764
5601 5601 5602 5604 5605 5608 5610 5613 5619 5624 5631 5637 5641 5643 5643 5649 5653 5662 5669 5676 5683 5688 5693 5698 5703 5706 5710 5714 5717 5719 5722 5726 5730 5734 5737 5740 5742 5745 5743 5748 5749 5752 5755 5757
5607 5607 5608 5609 5611 5614 5617 5620 5624 5630 5636 5643 5644 5646 5648 5653 5657 5663 5669 5674 5681 5688 5694 5696 5699 5704 5708 5710 5713 5715 5718 5721 5724 5726 5728 5731 5734 5735 5738 5740 5741 5744 5746 5748
5612 5613 5613 5614 5617 5620 5624 5629 5633 5636 5642 5646 5648 5651 5654 5658 5662 5667 5673 5678 5684 5689 5694 5698 5699 5701 5702 5703 5706 5710 5713 5715 5716 5719 5722 5723 5724 5726 5728 5730 5732 5734 5737 5738
5618 5618 5620 5621 5623 5626 5630 5634 5638 5642 5646 5650 5653 5656 5661 5665 5668 5672 5677 5682 5686 5690 5692 5696 5697 5697 5697 5698 5700 5703 5705 5707 5708 5710 5712 5713 5714 5715 5716 5718 5721 5724 5726 5727
5624 5623 5624 5626 5630 5633 5636 5639 5643 5648 5653 5655 5659 5663 5664 5667 5671 5676 5679 5684 5686 5688 5689 5690 5692 5693 5693 5694 5695 5696 5698 5700 5702 5702 5702 5703 5705 5705 5707 5709 5712 5714 5717 5718
5630 5631 5632 5632 5636 5639 5641 5645 5649 5652 5656 5659 5663 5666 5669 5672 5674 5676 5678 5678 5679 5681 5684 5685 5686 5687 5689 5691 5692 5692 5691 5691 5690 5691 5693 5693 5694 5695 5696 5698 5700 5702 5704 5707
5636 5636 5637 5639 5639 5641 5645 5649 5653 5656 5660 5661 5663 5666 5668 5671 5673 5675 5675 5675 5676 5677 5676 5675 5678 5679 5680 5680 5680 5681 5681 5680 5680 5680 5679 5680 5683 5685 5687 5688 5689 5691 5693 5694
5641 5641 5642 5644 5645 5646 5649 5652 5655 5657 5660 5663 5665 5666 5667 5669 5671 5673 5674 5674 5671 5670 5670 5669 5668 5665 5665 5666 5665 5664 5665 5666 5667 5669 5670 5671 5672 5673 5674 5675 5676 5678 5680 5682
5645 5646 5645 5645 5647 5649 5652 5654 5656 5657 5660 5664 5664 5665 5665 5665 5666 5666 5666 5666 5666 5665 5662 5659 5656 5653 5652 5649 5647 5649 5650 5649 5651 5653 5653 5655 5658 5660 5660 5661 5663 5665 5666 5668
5650 5651 5652 5652 5652 5654 5655 5655 5657 5658 5660 5662 5663 5664 5662 5662 5662 5661 5661 5660 5660 5658 5656 5652 5648 5644 5639 5636 5635 5636 5635 5633 5634 5635 5634 5636 5640 5643 5645 5647 5649 5652 5654 5655
5659 5660 5660 5661 5660 5662 5663 5663 5664 5665 5665 5665 5664 5663 5662 5661 5659 5659 5658 5656 5653 5651 5648 5644 5640 5635 5630 5624 5619 5618 5617 5617 5617 5617 5617 5618 5622 5625 5627 5631 5633 5636 5638 5641
5665 5665 5665 5666 5665 5665 5666 5667 5666 5666 5665 5664 5663 5663 5661 5659 5658 5656 5653 5650 5647 5645 5641 5636 5630 5624 5619 5611 5605 5600 5598 5595 5596 5598 5598 5600 5601 5604 5609 5613 5615 5619 5621 5625
5667 5666 5667 5666 5666 5665 5666 5666 5665 5663 5663 5660 5660 5658 5656 5654 5654 5649 5646 5642 5639 5635 5630 5625 5618 5612 5602 5594 5587 5580 5577 5576 5576 5572 5575 5580 5582 5585 5588 5592 5596 5601 5607 5610
5668 5668 5667 5666 5666 5665 5664 5663 5662 5661 5663 5657 5655 5653 5650 5647 5644 5640 5635 5632 5627 5622 5616 5608 5599 5592 5584 5577 5567 5561 5556 5554 5549 5548 5553 5557 5562 5567 5571 5572 5577 5583 5588 5593
5667 5667 5666 5665 5663 5664 5662 5661 5659 5658 5654 5651 5648 5645 5641 5638 5633 5627 5625 5620 5615 5608 5599 5590 5581 5572 5562 5550 5539 5534 5529 5521 5520 5522 5529 5536 5540 5544 5551 5556 5561 5566 5571 5576
5665 5665 5663 5662 5661 5659 5657 5655 5652 5650 5647 5644 5640 5636 5631 5626 5620 5616 5612 5606 5599 5590 5580 5571 5562 5553 5543 5523 5507 5498 5494 5488 5486 5491 5504 5513 5519 5526 5531 5538 5543 5549 5556 5561
5663 5661 5659 5658 5656 5653 5651 5648 5645 5643 5639 5634 5630 5625 5621 5615 5608 5604 5597 5590 5583 5573 5564 5555 5543 5532 5520 5502 5491 5479 5474 5471 5469 5470 5480 5493 5502 5509 5516 5521 5528 5533 5541 5547
5660 5658 5656 5653 5651 5648 5644 5642 5639 5635 5630 5626 5621 5615 5609 5603 5597 5590 5581 5575 5567 5558 5548 5536 5524 5512 5497 5487 5477 5462 5453 5452 5454 5456 5464 5479 5489 5496 5502 5508 5516 5520 5526 5533
5656 5654 5651 5648 5645 5642 5639 5635 5631 5626 5622 5617 5612 5605 5599 5593 5583 5576 5568 5561 5554 5543 5533 5521 5509 5496 5484 5476 5465 5450 5440 5440 5441 5446 5456 5469 5478 5486 5490 5497 5503 5509 5514 5520